This demonstration page uses our WeatherBlox Daily Observations layout. Learn more.

Hourly Observations for January 24, 2016

Temp ( °F °C ) Dew Point ( °F °C ) Humidity (%) Winds ( mph kmh ) Pressure ( in mb ) Visibility ( mi km ) Precip ( " mm )
12:15 am 00:15 Clear 27 -3 25 -4 93 93 SSW 3 6 29.97 1015 7 11.265408 0 0
12:35 am 00:35 Clear 27 -3 25 -4 93 93 SSW 3 6 29.94 1014 7 11.265408 0 0
12:55 am 00:55 Clear 27 -3 25 -4 93 93 SSW 5 7 29.94 1014 10 16.09344 0 0
1:15 am 01:15 Clear 28 -2 27 -3 93 93 SSW 3 6 29.91 1013 10 16.09344 0 0
1:35 am 01:35 Clear 28 -2 25 -4 86 86 Calm 29.88 1012 10 16.09344 0 0
1:55 am 01:55 Clear 27 -3 25 -4 93 93 Calm 29.91 1013 7 11.265408 0 0
2:15 am 02:15 Clear 27 -3 25 -4 93 93 Calm 29.91 1013 7 11.265408 0 0
2:35 am 02:35 Clear 25 -4 23 -5 93 93 Calm 29.91 1013 7 11.265408 0 0
2:55 am 02:55 Clear 25 -4 23 -5 93 93 Calm 29.91 1013 7 11.265408 0 0
3:15 am 03:15 Clear 27 -3 25 -4 93 93 Calm 29.91 1013 7 11.265408 0 0
3:35 am 03:35 Clear 25 -4 23 -5 93 93 Calm 29.91 1013 7 11.265408 0 0
3:55 am 03:55 Clear 25 -4 23 -5 93 93 Calm 29.91 1013 7 11.265408 0 0
4:15 am 04:15 Clear 25 -4 23 -5 93 93 Calm 29.91 1013 7 11.265408 0 0
4:35 am 04:35 Clear 25 -4 23 -5 93 93 Calm 29.91 1013 7 11.265408 0 0
4:55 am 04:55 Clear 25 -4 25 -4 100 100 NNW 3 6 29.91 1013 7 11.265408 0 0
5:15 am 05:15 Clear 27 -3 25 -4 93 93 Calm 29.88 1012 7 11.265408 0 0
5:35 am 05:35 Clear 25 -4 23 -5 93 93 Calm 29.91 1013 7 11.265408 0 0
5:55 am 05:55 Clear 25 -4 23 -5 93 93 Calm 29.88 1012 7 11.265408 0 0
6:15 am 06:15 Clear 27 -3 25 -4 93 93 Calm 29.88 1012 7 11.265408 0 0
6:35 am 06:35 Clear 27 -3 25 -4 93 93 Calm 29.88 1012 7 11.265408 0 0
6:55 am 06:55 Clear 25 -4 23 -5 93 93 Calm 29.88 1012 7 11.265408 0 0
7:15 am 07:15 Clear 27 -3 25 -4 93 93 Calm 29.88 1012 7 11.265408 0 0
7:35 am 07:35 Clear 25 -4 23 -5 93 93 Calm 29.88 1012 7 11.265408 0 0
7:55 am 07:55 Sunny 27 -3 25 -4 93 93 Calm 29.88 1012 7 11.265408 0 0
8:15 am 08:15 Sunny 27 -3 25 -4 93 93 Calm 29.88 1012 7 11.265408 0 0
8:35 am 08:35 Sunny 28 -2 25 -4 86 86 ENE 3 6 29.85 1011 7 11.265408 0 0
8:55 am 08:55 Sunny 27 -3 25 -4 93 93 Calm 29.88 1012 7 11.265408 0 0
9:15 am 09:15 Sunny 27 -3 25 -4 93 93 Calm 29.88 1012 7 11.265408 0 0
9:35 am 09:35 Sunny with Mist and Fog 28 -2 25 -4 86 86 Calm 29.85 1011 5 8.04672 0 0
9:55 am 09:55 Sunny 28 -2 27 -3 93 93 Calm 29.85 1011 7 11.265408 0 0
10:15 am 10:15 Sunny 30 -1 27 -3 86 86 Calm 29.85 1011 7 11.265408 0 0
10:35 am 10:35 Sunny 30 -1 27 -3 86 86 Calm 29.85 1011 7 11.265408 0 0
10:55 am 10:55 Sunny 30 -1 27 -3 86 86 SSE 3 6 29.83 1010 7 11.265408 0 0
11:15 am 11:15 Sunny 30 -1 27 -3 86 86 Calm 29.83 1010 7 11.265408 0 0
11:35 am 11:35 Sunny 32 0 28 -2 87 87 Calm 29.77 1008 10 16.09344 0 0
11:55 am 11:55 Sunny 34 1 28 -2 81 81 Calm 29.77 1008 10 16.09344 0 0
12:15 pm 12:15 Sunny 36 2 30 -1 81 81 Calm 29.77 1008 10 16.09344 0 0
12:35 pm 12:35 Sunny 36 2 30 -1 81 81 Calm 29.74 1007 10 16.09344 0 0
12:55 pm 12:55 Sunny 36 2 30 -1 81 81 Calm 29.74 1007 10 16.09344 0 0
1:15 pm 13:15 Sunny 37 3 30 -1 75 75 NNE 6 9 29.68 1005 10 16.09344 0 0
1:35 pm 13:35 Sunny 37 3 32 0 81 81 ENE 3 6 29.68 1005 10 16.09344 0 0
1:55 pm 13:55 Sunny 39 4 32 0 75 75 Calm 29.68 1005 10 16.09344 0 0
2:15 pm 14:15 Sunny 39 4 30 -1 70 70 Calm 29.68 1005 10 16.09344 0 0
2:35 pm 14:35 Sunny 39 4 32 0 75 75 E 3 6 29.68 1005 10 16.09344 0 0
2:55 pm 14:55 Sunny 39 4 32 0 75 75 ENE 6 9 29.65 1004 10 16.09344 0 0
3:15 pm 15:15 Sunny 39 4 32 0 75 75 E 7 11 29.65 1004 10 16.09344 0 0
3:35 pm 15:35 Sunny 41 5 34 1 76 76 E 5 7 29.65 1004 10 16.09344 0 0
3:55 pm 15:55 Sunny 39 4 32 0 75 75 E 7 11 29.65 1004 10 16.09344 0 0
4:15 pm 16:15 Sunny 37 3 32 0 81 81 E 8 13 29.65 1004 10 16.09344 0 0
4:35 pm 16:35 Sunny 37 3 32 0 81 81 E 8 13 29.65 1004 10 16.09344 0 0
4:55 pm 16:55 Sunny 36 2 32 0 87 87 E 7 11 29.68 1005 7 11.265408 0 0
5:15 pm 17:15 Sunny 36 2 32 0 87 87 ESE 8 13 29.68 1005 7 11.265408 0 0
5:35 pm 17:35 Sunny 34 1 32 0 93 93 E 9 15 29.68 1005 7 11.265408 0 0
5:55 pm 17:55 Clear 34 1 30 -1 87 87 ESE 8 13 29.71 1006 7 11.265408 0 0
6:15 pm 18:15 Clear with Mist and Fog 32 0 30 -1 93 93 E 8 13 29.71 1006 5 8.04672 0 0
6:35 pm 18:35 Clear with Mist and Fog 32 0 30 -1 93 93 ESE 5 7 29.71 1006 5 8.04672 0 0
6:55 pm 18:55 Clear with Mist and Fog 30 -1 28 -2 93 93 ESE 5 7 29.74 1007 5 8.04672 0 0
7:15 pm 19:15 Clear with Mist and Fog 30 -1 28 -2 93 93 ESE 5 7 29.74 1007 5 8.04672 0 0
7:35 pm 19:35 Clear with Mist and Fog 28 -2 28 -2 100 100 E 5 7 29.74 1007 4 6.437376 0 0
7:55 pm 19:55 Partly Cloudy with Mist and Fog 28 -2 27 -3 93 93 Calm 29.77 1008 4 6.437376 0 0
8:15 pm 20:15 Cloudy with Mist and Fog 30 -1 28 -2 93 93 ESE 3 6 29.74 1007 5 8.04672 0 0
8:35 pm 20:35 Cloudy with Mist and Fog 30 -1 28 -2 93 93 SSE 3 6 29.77 1008 4 6.437376 0 0
8:55 pm 20:55 Cloudy with Mist and Fog 30 -1 28 -2 93 93 Calm 29.77 1008 4 6.437376 0 0
9:15 pm 21:15 Cloudy with Mist and Fog 30 -1 28 -2 93 93 Calm 29.77 1008 4 6.437376 0 0
9:35 pm 21:35 Cloudy with Mist and Fog 30 -1 28 -2 93 93 Calm 29.77 1008 4 6.437376 0 0
9:55 pm 21:55 Cloudy with Mist and Fog 30 -1 28 -2 93 93 Calm 29.77 1008 4 6.437376 0 0
10:15 pm 22:15 Cloudy with Mist and Fog 30 -1 28 -2 93 93 Calm 29.77 1008 4 6.437376 0 0
10:35 pm 22:35 Cloudy with Mist and Fog 30 -1 28 -2 93 93 Calm 29.77 1008 4 6.437376 0 0
10:55 pm 22:55 Cloudy with Mist and Fog 30 -1 28 -2 93 93 Calm 29.77 1008 4 6.437376 0 0
11:15 pm 23:15 Cloudy with Mist and Fog 30 -1 28 -2 93 93 NNW 6 9 29.77 1008 4 6.437376 0 0
11:35 pm 23:35 Cloudy with Mist and Fog 30 -1 28 -2 93 93 N 5 7 29.77 1008 4 6.437376 0 0
11:55 pm 23:55 Cloudy with Mist and Fog 30 -1 30 -1 100 100 N 3 6 29.77 1008 4 6.437376 0 0

Powered by AerisWeather